Location: Newark
(31.5350°N, 35.0986°E)
Time: 20:09:27
(UTC+00:00)

A-11 Canister half - Pass Details

Date: 25 October 2019
Orbit: 1514 x 1686 km, 47.2° (Epoch: 11 November)

Event Time Altitude Azimuth Distance (km) Brightness Sun altitude
Exits shadow 02:07:08 17° 317° (NW) 3,305 10.3 -22.5°
Maximum altitude 02:13:30 33° 10° (N) 2,431 10.1 -21.1°
Drops below altitude 10° 02:21:48 10° 72° (ENE) 3,730 12.1 -19.3°
Sets 02:25:17 0° 82° (E) 4,692 13.1 -18.6°
